Weather History for CYYJ - April, 2014

Change the Weather History Date:

Saturday, April 12, 2014

  Actual Average Record
Temperature  
Mean Temperature 49 °F -  
Max Temperature 61 °F 57 °F 64 °F (2008)
Min Temperature 37 °F 41 °F 33 °F (2011)
Degree Days  
Heating Degree Days 16    
Moisture  
Dew Point 40 °F    
Average Humidity 71    
Maximum Humidity 100    
Minimum Humidity 40    
Precipitation  
Precipitation 0.00 in 0.05 in - ()
Sea Level Pressure  
Sea Level Pressure 30.13 in    
Wind  
Wind Speed 5 mph ()    
Max Wind Speed 12 mph    
Max Gust Speed -    
Averages and records for this station are not official NWS values.
T = Trace of Precipitation, MM = Missing Value Source: Averaged Metar Reports

Daily Weather History Graph

Daily Weather History Graph

Search for Another Location

Airport or City:

Trip Planner

Search our weather history database for the weather conditions in past years. The results will help you decide how hot, cold, wet, or windy it might be!

Date:

Astronomy

Apr. 12, 2014 Rise Set
Actual Time 6:28 AM PDT 8:00 PM PDT
Civil Twilight 5:56 AM PDT 8:33 PM PDT
Nautical Twilight 5:16 AM PDT 9:13 PM PDT
Astronomical Twilight 4:32 AM PDT 9:57 PM PDT
Moon 5:34 PM PDT (4/12) 5:11 AM PDT (4/12)
Length of Visible Light 14h 37m
Length of Day
13h 32m
Waxing Gibbous, 93% of the Moon is Illuminated
Apr 12
Waxing Gibbous
Apr 15
Full
Apr 22
Last Quarter
Apr 28
New
May 6
First Quarter

Hourly Weather History & Observations

Time (PDT) Temp. Windchill Dew Point Humidity Pressure Visibility Wind Dir Wind Speed Gust Speed Precip Events Conditions
12:00 AM 48.2 °F - 41.0 °F 76% 30.08 in 30.0 mi West 9.2 mph - N/A   Scattered Clouds
1:00 AM 46.4 °F 43.5 °F 41.0 °F 81% 30.07 in 30.0 mi West 5.8 mph - N/A   Partly Cloudy
2:00 AM 44.6 °F 39.7 °F 41.0 °F 87% 30.08 in 30.0 mi West 9.2 mph - N/A   Scattered Clouds
3:00 AM 42.8 °F - 39.2 °F 87% 30.08 in 30.0 mi SSE 2.3 mph - N/A   Partly Cloudy
4:00 AM 39.2 °F 37.0 °F 37.4 °F 93% 30.09 in 30.0 mi WSW 3.5 mph - N/A   Partly Cloudy
5:00 AM 38 °F - 37 °F 93% 30.11 in 28 mi WSW 3.5 mph - -   Scattered Clouds
5:00 AM 39.2 °F 35.9 °F 37.4 °F 93% 30.10 in 30.0 mi SSW 4.6 mph - N/A   Partly Cloudy
6:00 AM 37.4 °F 34.9 °F 37.4 °F 100% 30.11 in 30.0 mi West 3.5 mph - N/A   Partly Cloudy
7:00 AM 39.2 °F - 39.2 °F 100% 30.12 in 30.0 mi West 2.3 mph - N/A   Partly Cloudy
8:00 AM 44.6 °F 41.4 °F 41.0 °F 87% 30.14 in 30.0 mi West 5.8 mph - N/A   Partly Cloudy
9:00 AM 48.2 °F - 41.0 °F 76% 30.15 in 30.0 mi WNW 10.4 mph - N/A   Partly Cloudy
10:00 AM 51.8 °F - 41.0 °F 67% 30.15 in 30.0 mi WNW 11.5 mph - N/A   Partly Cloudy
11:00 AM 54 °F - 41 °F 51% 30.15 in 28 mi North 1.2 mph - -   Scattered Clouds
11:00 AM 53.6 °F - 41.0 °F 62% 30.15 in 30.0 mi Variable 9.2 mph - N/A   Partly Cloudy
12:00 PM 55.4 °F - 42.8 °F 63% 30.16 in 30.0 mi North 4.6 mph - N/A   Partly Cloudy
1:00 PM 57.2 °F - 46.4 °F 67% 30.15 in 30.0 mi ENE 6.9 mph - N/A   Partly Cloudy
2:00 PM 59.0 °F - 39.2 °F 48% 30.16 in 30.0 mi NNE 5.8 mph - N/A   Partly Cloudy
3:00 PM 59.0 °F - 41.0 °F 51% 30.15 in 30.0 mi East 6.9 mph - N/A   Partly Cloudy
4:00 PM 60.8 °F - 42.8 °F 52% 30.14 in 30.0 mi ESE 2.3 mph - N/A   Partly Cloudy
5:00 PM 61 °F - 43 °F 40% 30.14 in 28 mi North 1.2 mph - -   Scattered Clouds
5:00 PM 60.8 °F - 42.8 °F 52% 30.13 in 30.0 mi Calm Calm - N/A   Partly Cloudy
6:00 PM 59.0 °F - 39.2 °F 48% 30.13 in 30.0 mi East 6.9 mph - N/A   Clear
7:00 PM 57.2 °F - 37.4 °F 48% 30.13 in 30.0 mi East 3.5 mph - N/A   Partly Cloudy
8:00 PM 51.8 °F - 39.2 °F 62% 30.14 in 30.0 mi SE 4.6 mph - N/A   Partly Cloudy
9:00 PM 46.4 °F 45.2 °F 37.4 °F 71% 30.17 in 30.0 mi SW 3.5 mph - N/A   Partly Cloudy
10:00 PM 48.2 °F - 39.2 °F 71% 30.18 in 30.0 mi WSW 4.6 mph - N/A   Clear
11:00 PM 43 °F - 38 °F 75% 30.20 in 28 mi WSW 5.8 mph - -  
11:00 PM 42.8 °F 38.6 °F 37.4 °F 81% 30.20 in 30.0 mi WSW 6.9 mph - N/A   Clear